Regional Weather Roundup
Issued by NWS

Home | Current Version | Previous Version | Graphics & Text | Print | Product List | Glossary On
Versions: 1 2 3 4 5 6 7 8 9 10 11 12 13 14 15 16 17 18 19 20 21 22 23 24 25 26 27 28 29 30 31 32 33 34 35 36 37 38 39 40 41 42 43 44 45 46 47 48 49 50
000
ASUS43 KOAX 171410
RWRNE

WEATHER ROUNDUP FOR NEBRASKA
NATIONAL WEATHER SERVICE OMAHA NE
900 AM CDT WED SEP 17 2014

NOTES: SATELLITE DATA IS BEING USED TO AUGMENT CLOUD COVER ABOVE
       12000 FEET.
       "FAIR" INDICATES FEW OR NO CLOUDS BELOW 12,000 FEET WITH NO
       SIGNIFICANT WEATHER AND/OR OBSTRUCTIONS TO VISIBILITY.

  * THESE STATIONS DO NOT REPORT WEATHER SUCH AS RAIN...SNOW OR FOG.

NEZ001>004-019>022-054>056-171500-
NEBRASKA PANHANDLE

CITY           SKY/WX    TMP DP  RH WIND       PRES   REMARKS
SCOTTSBLUFF    SUNNY     55  47  74 W5        30.01R
ALLIANCE       MOSUNNY   52  48  86 W7        29.99R
CHADRON        SUNNY     51  47  86 SW3       29.97S
KIMBALL        SUNNY     57  41  55 NW9       30.04R
SIDNEY         MOSUNNY   53  43  68 NW9       30.01R
$$

NEZ057>060-069>072-079>082-171500-
SOUTHWEST NEBRASKA

CITY           SKY/WX    TMP DP  RH WIND       PRES   REMARKS
NORTH PLATTE   FOG       51  51 100 CALM      29.95F VSB<1/4
IMPERIAL       SUNNY     56  50  80 N5        29.98S
LEXINGTON      SUNNY     51  50  97 CALM      29.94F FOG
MCCOOK         FOG       52  51  97 W6        29.96R VSB 1/4
OGALLALA       MOSUNNY   52  52  99 CALM      29.97S
$$

NEZ005>010-023>029-035>040-094-171500-
NORTH CENTRAL NEBRASKA

CITY           SKY/WX    TMP DP  RH WIND       PRES   REMARKS
VALENTINE      MOSUNNY   54  53  97 SW3       29.93F
AINSWORTH      MOSUNNY   58  57  99 CALM      29.94S
BROKEN BOW     SUNNY     52  51  97 CALM      29.94F
O`NEILL        SUNNY     55  55 100 S3        29.93S FOG
ORD            PTSUNNY   51  50  96 CALM      29.93S FOG
THEDFORD       SUNNY     55  55  99 CALM      29.96S
$$

NEZ041-046>049-061>064-073>077-083>087-171500-
SOUTH CENTRAL NEBRASKA

CITY           SKY/WX    TMP DP  RH WIND       PRES   REMARKS
GRAND ISLAND   SUNNY     56  51  84 NE6       29.93F
AURORA         SUNNY     56  54  94 CALM      29.93F
HASTINGS       SUNNY     56  50  80 N6        29.93F
HEBRON         FOG       61  59  94 CALM      29.93S VSB 1/4
HOLDREGE       SUNNY     54  52  92 CALM      29.93S
KEARNEY *      SUNNY     52  50  93 N5        29.94F
YORK           SUNNY     55  55 100 NE3       29.94F
$$

NEZ011>018-030>034-042>045-171500-
NORTHEAST NEBRASKA

CITY           SKY/WX    TMP DP  RH WIND       PRES   REMARKS
NORFOLK        SUNNY     57  53  86 CALM      29.93F
ALBION         SUNNY     51  48  89 CALM      29.94S
BLAIR          SUNNY     62  56  82 CALM      29.93S
COLUMBUS *     SUNNY     57  52  82 CALM      29.94F
FREMONT        SUNNY     61  56  83 CALM      29.93F
TEKAMAH        SUNNY     59  54  83 S5        29.93S
WAYNE          SUNNY     55  52  91 CALM      29.93S
$$

NEZ050>053-065>068-078-088>093-171500-
SOUTHEAST NEBRASKA

CITY           SKY/WX    TMP DP  RH WIND       PRES   REMARKS
LINCOLN        CLOUDY    60  55  83 CALM      29.94S
OMAHA EPPLEY   MOSUNNY   61  55  81 S5        29.94R
BEATRICE       CLOUDY    63  61  96 CALM      29.93S FOG
FALLS CITY     CLOUDY    63  61  93 E6        29.93R
NEBRASKA CITY  CLOUDY    61  57  87 CALM      29.94S
PLATTSMOUTH    SUNNY     61  56  82 SE3       29.93F
$$

NEZ044-045-051>053-067-171500-
OMAHA AREA

CITY           SKY/WX    TMP DP  RH WIND       PRES   REMARKS
OMAHA EPPLEY   MOSUNNY   61  55  81 S5        29.94R
BLAIR          SUNNY     62  56  82 CALM      29.93S
FREMONT        SUNNY     61  56  83 CALM      29.93F
MILLARD        SUNNY     62  56  82 SE5       29.93S
OFFUTT AFB     SUNNY     62  62  99 E6        29.93S
PLATTSMOUTH    SUNNY     61  56  82 SE3       29.93F
WAHOO          FAIR      60  55  82 S5        29.94S
$$


USA.gov is the U.S. government's official web portal to all federal, state and local government web resources and services.